Location: UBC Liquid-Mirror Observatory
(49.2876°N, 122.5728°W)
Time: 23:15:19
(UTC-07:00)

Daily predictions for brighter satellites

Satellite Brightness Start Highest point End
(mag) Time Altitude Azimuth Time Altitude Azimuth Time Altitude Azimuth
SJ-6B 2.9 19:56:17 10° S 20:00:01 78° WSW 20:03:47 10° NNW
Lacrosse 4 Rocket 1.7 19:59:43 10° S 20:03:31 41° ESE 20:07:22 10° NE
Resurs 1-3 3.7 20:04:51 10° SSE 20:09:09 59° ENE 20:13:29 10° N
Cosmos 2058 Rocket 4.2 20:08:57 10° SSW 20:13:20 51° WNW 20:17:45 10° N
COSMO-SKYMED 1 4.4 20:09:29 10° N 20:13:30 37° WNW 20:17:30 10° SW
Tiangong 1 3.1 20:15:40 10° WSW 20:17:44 17° SSW 20:19:47 10° SSE
In-Cosmos 22 4.2 20:13:26 10° N 20:18:44 57° ENE 20:23:56 10° SSE
Cosmos 1378 3.4 20:16:36 10° NNW 20:20:23 74° W 20:24:07 10° S
Spot 2 Rocket 3.5 20:16:53 10° SSE 20:21:59 85° ENE 20:27:09 10° NNW
Cosmos 2344 3.8 20:16:15 10° SSW 20:23:37 53° ESE 20:32:02 10° NE
Cosmos 1844 Rocket 2.7 20:18:36 10° SSW 20:24:14 79° ESE 20:29:54 10° NNE
Cosmos 2150 Rocket 3.9 20:19:14 10° S 20:24:20 68° ESE 20:29:28 10° NNE
SAR-Lupe-4 3.8 20:21:02 10° SSE 20:24:29 49° ENE 20:27:59 10° N
Abrixas 2.6 20:24:41 10° W 20:27:29 56° SSW 20:29:25 18° ESE
Cosmos 1939 Rocket 3.9 20:25:21 12° SE 20:28:35 30° ENE 20:32:13 10° N
H-2A R/B 4.2 20:27:51 10° ENE 20:28:50 10° NE 20:29:48 10° NE
Cosmos 1833 Rocket 3.3 20:24:44 10° NNW 20:30:02 40° NE 20:34:23 15° ESE
USA 186 1.1 20:28:06 12° SSE 20:30:03 47° ENE 20:32:14 10° N
Cosmos 1953 3.3 20:26:56 10° SSE 20:30:20 26° E 20:33:45 10° NNE
Okean 3 Rocket 3.6 20:26:15 10° N 20:30:36 59° ENE 20:34:57 10° SSE
USA 215 4.0 20:25:25 10° ENE 20:30:59 29° SE 20:36:32 10° S
Cosmos 2278 Rocket 2.5 20:28:33 10° S 20:33:53 44° ESE 20:39:15 10° NE
H-2A R/B 3.2 20:30:58 10° S 20:34:49 65° WSW 20:38:46 10° NNW
Cosmos 1898 Rocket 3.7 20:31:41 10° SSW 20:37:00 78° WNW 20:42:19 10° NNE
Cosmos 990 Rocket 3.9 20:32:24 10° S 20:37:37 68° ESE 20:42:50 10° NNE
Envisat 3.2 20:35:02 10° SE 20:39:55 50° ENE 20:44:50 10° N
Cosmos 1934 Rocket 3.9 20:37:11 10° S 20:43:20 89° E 20:49:27 10° N
SAR-Lupe-1 4.0 20:40:21 10° SSE 20:43:55 73° ENE 20:47:31 10° N
Meteor 1-24 Rocket 4.2 20:39:24 10° NNW 20:44:46 61° W 20:50:16 10° S
Cosmos 1125 Rocket 4.2 20:41:12 10° SSE 20:45:39 30° E 20:50:10 10° NE
Cosmos 1048 Rocket 4.2 20:40:40 10° NNW 20:45:43 53° ENE 20:49:27 17° SE
Lacrosse 5 rocket 2.0 20:44:55 10° NW 20:48:46 41° NNE 20:50:52 22° E
CZ-4B DEB 2.7 20:46:52 18° SSE 20:49:00 60° ENE 20:52:05 10° N
Geosat 3.9 20:45:27 10° NE 20:50:29 66° ESE 20:55:29 10° SSW
Meteor 1-4 Rocket 2.9 20:48:50 12° SSE 20:51:48 36° E 20:55:02 10° NNE
SL-27 R/B 3.9 20:49:43 10° NW 20:53:04 39° WSW 20:56:26 10° S
RESURS DK-1 3.4 20:49:22 10° NW 20:53:18 44° WSW 20:57:13 10° S
Cosmos 1544 3.1 20:50:16 10° S 20:53:50 56° E 20:57:27 10° NNE
Cosmos 1766 3.5 20:51:09 10° SSW 20:55:01 71° WNW 20:58:55 10° N
Meteor 1-29 3.2 20:53:09 10° NNE 20:56:30 45° E 20:59:51 10° S
ALOS 4.2 20:52:21 10° SSW 20:56:30 31° W 21:00:41 10° NNW
GP-B 3.2 20:52:35 10° SSE 20:56:55 56° E 21:01:17 10° N
COSMOS 2487 2.8 20:53:55 10° NNW 20:57:25 47° ENE 20:58:41 31° ESE
Cosmos 1812 Rocket 4.3 20:53:07 10° SSW 20:57:28 55° WNW 21:01:48 10° N
Resurs 01 Rocket 3.0 20:53:54 10° S 20:58:04 41° W 21:02:17 10° NNW
Cosmos 2082 Rocket 2.2 20:53:58 10° NNW 20:59:42 68° ENE 21:03:31 21° SE
Cosmos 1818 3.6 20:57:25 10° NW 21:02:54 84° SW 21:06:41 21° SSE
Cosmos 1271 Rocket 3.8 21:03:26 26° E 21:03:26 26° E 21:06:27 10° NNE
BREEZE-M DEB 4.1 21:01:42 10° WSW 21:05:44 77° SSE 21:06:33 45° E
ERS-1 Rocket 3.2 21:03:31 24° SE 21:06:15 49° ENE 21:11:07 10° N
USA 267 3.4 21:02:01 21° E 21:06:29 66° NNE 21:12:58 10° WNW
Cosmos 2151 4.5 21:05:28 10° NNE 21:08:36 20° ENE 21:08:36 20° ENE
Cosmos 1766 Rocket 3.5 21:04:58 10° N 21:09:27 71° ENE 21:12:21 22° SSE
Cosmos 1937 Rocket 4.2 21:04:38 10° SW 21:09:49 59° WNW 21:15:05 10° NNE
Cosmos 1076 Rocket 3.5 21:05:34 10° N 21:09:51 85° W 21:13:28 14° S
Cosmos 2251 Rocket 4.4 21:06:21 10° N 21:11:07 32° NE 21:12:48 27° E
Lacrosse 5 1.9 21:08:21 10° SW 21:13:19 57° SE 21:16:45 20° ENE
Cosmos 1269 Rocket 4.0 21:12:20 10° NNW 21:17:40 88° WSW 21:21:03 23° SSE
Timation 1 Rocket 4.4 21:12:44 10° S 21:18:35 55° ESE 21:24:28 10° NE
SPOT 5 3.7 21:17:06 31° ESE 21:18:43 38° ENE 21:23:37 10° N
Cosmos 2100 Rocket 4.1 21:14:31 10° SSE 21:20:39 56° E 21:26:52 10° NNE
Cosmos 1605 Rocket 4.3 21:15:10 10° SSW 21:21:25 71° WNW 21:27:48 10° N
Cosmos 2098 Rocket 4.4 21:17:42 10° S 21:24:54 88° E 21:32:35 10° N
Meteor 1-21 Rocket 4.5 21:19:19 10° NNW 21:25:05 74° W 21:30:51 10° S
Helios 1B rocket 2.7 21:21:56 10° N 21:26:04 69° WNW 21:30:09 10° SSW
Fregat R/B Cluster 11 3.9 21:21:44 10° SSW 21:26:38 63° SE 21:28:23 26° NE
Cosmos 1674 2.7 21:23:13 10° NNW 21:27:01 79° W 21:28:28 36° S
ARGOS 3.6 21:29:44 36° E 21:30:57 42° ENE 21:35:59 10° N
Cosmos 1805 4.0 21:27:46 10° SSW 21:31:35 53° WNW 21:35:27 10° N
MetOp-A 4.2 21:34:38 41° SE 21:36:21 61° ENE 21:41:38 10° N
Cosmos-2242 2.8 21:35:33 43° S 21:36:50 74° E 21:41:06 10° NNE
Cosmos 1340 Rocket 2.7 21:33:47 10° N 21:37:52 86° ENE 21:38:31 62° SSE
Cosmos 1802 Rocket 3.9 21:34:35 25° SSE 21:38:10 59° E 21:44:14 10° NNE
Cosmos 1743 Rocket 3.4 21:37:02 10° N 21:41:27 73° ENE 21:42:05 61° SE
Cosmos 1867 3.6 21:36:15 10° SSW 21:41:31 51° ESE 21:46:48 10° NE
Lacrosse 4 Rocket 3.5 21:38:51 10° WSW 21:42:21 27° NW 21:45:54 10° NNE
Cosmos 1500 Rocket 3.6 21:40:02 10° N 21:44:13 57° ENE 21:44:13 57° ENE
Cosmos 1470 2.6 21:44:19 77° SSE 21:44:34 84° E 21:48:34 10° N
Cosmos 2061 Rocket 3.9 21:41:04 15° S 21:46:23 74° E 21:52:50 10° NNE
H-2A R/B 3.6 21:47:32 22° NE 21:47:32 22° NE 21:49:50 10° N
Timation 2 Rocket 4.1 21:40:26 10° NNW 21:46:50 71° WSW 21:49:45 33° S
Terra 3.3 21:51:56 23° NE 21:51:56 23° NE 21:55:00 10° N
YAOGAN 6 3.0 21:55:08 58° WSW 21:55:17 59° W 21:59:00 10° NNW
Cosmos 372 Rocket 3.8 21:51:36 10° SSW 21:56:43 85° ESE 22:01:54 10° NNE
CZ-3B DEB 2.2 21:51:14 10° WSW 21:59:38 73° NNW 22:01:05 44° NE
Cosmos 1953 4.2 22:03:04 10° SW 22:06:42 30° WNW 22:10:20 10° N
H-2A R/B 2.4 22:07:10 52° ENE 22:07:10 52° ENE 22:12:17 10° N
Cosmos 1733 3.8 22:08:58 54° WNW 22:08:58 54° WNW 22:12:45 10° N
Cosmos 1328 4.3 22:05:34 10° NNW 22:08:57 59° NW 22:08:57 59° NW
Cosmos 1626 4.3 22:06:51 10° N 22:08:11 19° NNE 22:08:11 19° NNE
SL-14 R/B 4.1 22:09:23 10° NNW 22:12:15 48° NNW 22:12:15 48° NNW
Cosmos 1833 Rocket 3.7 22:08:46 10° NW 22:13:59 41° WSW 22:16:07 29° SSW
BREEZE-M DEB (TANK) 4.3 22:09:47 10° SW 22:14:32 52° SE 22:32:55 10° ENE
USA 215 3.1 22:08:01 10° ENE 22:14:36 84° SE 22:21:10 10° SW
Cosmos 494 Rocket 3.8 22:10:03 10° NNW 22:15:12 88° WSW 22:15:18 86° S
NOAA 11 4.3 22:15:11 55° SSW 22:16:22 73° WSW 22:21:53 10° NNW
Cosmos 2278 Rocket 3.6 22:12:47 10° WSW 22:18:04 38° NW 22:23:22 10° NNE
Cosmos 1842 Rocket 4.3 22:19:45 46° N 22:19:45 46° N 22:22:53 10° N
Cosmos 1459 Rocket 4.4 22:14:23 10° SSW 22:20:36 62° WNW 22:26:45 10° N
Nimbus 7 Rocket 4.4 22:15:22 10° NNE 22:20:35 59° ENE 22:20:35 59° ENE
Cosmos 2173 Rocket 4.4 22:17:04 12° SSW 22:22:50 61° WNW 22:29:04 10° N
Meteor 1-11 4.1 22:17:34 10° NNW 22:23:11 80° W 22:23:45 71° SSW
Cosmos 2233 Rocket 4.4 22:26:11 45° ENE 22:26:11 45° ENE 22:30:59 10° NNE
Cosmos 1864 Rocket 4.4 22:25:53 70° SSE 22:26:32 78° E 22:32:53 10° NNE
Lacrosse 5 rocket 2.9 22:24:17 10° WNW 22:26:35 30° W 22:26:35 30° W
Cosmos 1356 Rocket 4.4 22:24:07 10° NNW 22:27:25 46° WNW 22:27:25 46° WNW
Cosmos 2297 4.2 22:24:39 10° SW 22:30:18 58° WNW 22:36:00 10° NNE
Cosmos 2082 Rocket 4.1 22:38:55 10° NW 22:43:15 23° WSW 22:45:24 18° SW
Cosmos 2151 4.4 22:42:10 10° NNW 22:45:12 37° NW 22:45:12 37° NW
USA 267 3.4 22:49:22 56° SSW 22:49:37 56° SW 22:56:03 10° WNW
SPOT 1/Viking Rocket 4.0 22:51:05 56° W 22:51:05 56° W 22:55:50 10° NNW
Cosmos 2251 Rocket 4.3 22:48:31 10° NW 22:53:18 45° W 22:53:18 45° W
Lacrosse 5 2.7 22:51:30 10° W 22:56:02 48° NW 22:56:02 48° NW
SPOT 5 4.1 22:56:20 37° WSW 22:56:44 38° W 23:01:43 10° NNW
Cosmos 1725 Rocket 4.3 22:59:11 57° WSW 23:00:00 63° WNW 23:06:11 10° N
ARGOS 4.4 23:11:14 33° W 23:11:18 33° W 23:16:08 10° NNW
H-2A R/B 4.4 23:24:39 20° NW 23:24:39 20° NW 23:26:12 10° NNW
Cosmos 2297 Rocket 4.4 23:22:45 10° N 23:26:07 16° NNE 23:26:33 16° NE
Terra 3.6 23:30:49 30° NW 23:30:49 30° NW 23:33:22 10° NNW
Cosmos 2369 Rocket 4.0 23:45:46 23° NNE 23:45:46 23° NNE 23:47:46 10° NNE
H-2A R/B 3.9 23:47:47 25° WNW 23:47:47 25° WNW 23:51:18 10° NW
Cosmos 2227 Rocket 4.1 23:47:28 10° NNW 23:51:04 23° NNE 23:51:04 23° NNE
